Tracking 31027 objects as of 19-Jul-2025
HD Live streaming from Space Station
objects crossing your sky now

DELTA 1 DEB (YO)

Track DELTA 1 DEB (YO) now!
10-day predictions


NORAD ID: 167
Int'l Code: 1961-017D
Perigee: 754.4 km
Apogee: 884.0 km
Inclination: 47.8 °
Period: 101.1 minutes
Semi major axis: 7190 km
RCS: 0.047 m2 (small)
Launch date: July 12, 1961
Source: United States (US)
Launch site: AIR FORCE EASTERN TEST RANGE (AFETR)

Note: This is SATELLITE DEBRIS
Your satellite tracking list
IRIDIUM 135
Track 1 satellite(s)




NASA's NSSDC Master Catalog

Two Line Element Set (TLE):
1   167U 61017D   25195.96745802  .00000157  00000-0  12858-3 0  9992
2   167  47.8457  91.2478 0090093 170.3146 189.9499 14.23947544317110
Source of the keplerian elements: AFSPC